FW1232 Weather Reports


Display with metric or nautical units.
time (UTC)temp
F
wind
direction
speed
MPH
gust
MPH
rain 1hr
in
rain 24hr
in
rain mn
in
humidity
%
barometer
mb
20260503190108 62 247 2.0 12.0 0.00 0.00 0.00 51 1018.8
20260503184602 61 259 2.0 10.0 0.00 0.00 0.00 48 1019.2
20260503183101 59 277 3.0 13.0 0.00 0.00 0.00 52 1019.2
20260503181601 61 255 2.0 10.0 0.00 0.00 0.00 46 1019.5
20260503180059 59 308 5.0 12.0 0.00 0.00 0.00 49 1019.7
20260503174603 59 294 7.0 12.0 0.00 0.00 0.00 49 1019.8
20260503173100 60 0 3.0 12.0 0.00 0.00 0.00 45 1020.1
20260503171604 59 219 3.0 10.0 0.00 0.00 0.00 46 1020.4
20260503100109 40 106 3.0 4.0 0.00 0.00 0.00 90 1020.0
20260503081602 44 97 1.0 4.0 0.00 0.00 0.00 83 1019.8
20260503071601 46 14 4.0 7.0 0.00 0.00 0.00 80 1019.3
20260503060118 45 69 2.0 4.0 0.00 0.00 0.00 84 1018.9
20260503054611 47 0 0.0 4.0 0.00 0.00 0.00 83 1018.8
20260503053058 49 0 0.0 5.0 0.00 0.00 0.00 78 1018.9
20260503051557 49 5 4.0 8.0 0.00 0.00 0.00 78 1018.9
20260503050058 49 342 4.0 9.0 0.00 0.00 0.00 77 1018.8
20260503044600 49 338 5.0 9.0 0.00 0.00 0.00 79 1018.8
20260503043058 49 337 4.0 8.0 0.00 0.00 0.00 77 1018.8
20260503041559 49 5 4.0 9.0 0.00 0.00 0.00 74 1018.6
20260503040105 50 355 6.0 11.0 0.00 0.00 0.00 72 1018.4
20260503034607 50 5 4.0 9.0 0.00 0.00 0.00 74 1018.4
20260503033106 50 9 7.0 13.0 0.00 0.00 0.00 71 1018.4
20260503031558 51 355 7.0 10.0 0.00 0.00 0.00 72 1018.3
20260503030059 51 355 6.0 10.0 0.00 0.00 0.00 70 1018.2
20260503024559 51 13 4.0 12.0 0.00 0.00 0.00 69 1018.5
20260503023107 51 9 7.0 13.0 0.00 0.00 0.00 69 1018.3
20260503021559 52 348 7.0 11.0 0.00 0.00 0.00 69 1018.0
20260503020100 52 5 6.0 9.0 0.00 0.00 0.00 70 1017.8
20260503014608 53 327 5.0 11.0 0.00 0.00 0.00 65 1017.7
20260503013058 53 316 4.0 8.0 0.00 0.00 0.00 68 1017.5
20260503011604 53 304 2.0 4.0 0.00 0.00 0.00 65 1017.4
20260503010056 53 5 2.0 5.0 0.00 0.00 0.00 68 1017.2
20260503004605 53 5 3.0 6.0 0.00 0.00 0.00 65 1017.1
20260503003103 54 9 4.0 7.0 0.00 0.00 0.00 64 1017.0
20260503001618 54 360 4.0 8.0 0.00 0.00 0.00 64 1016.8
20260503000121 54 14 6.0 9.0 0.00 0.00 0.00 61 1016.5
20260502234606 54 9 8.0 11.0 0.00 0.00 0.00 60 1016.4
20260502233100 55 5 8.0 13.0 0.00 0.00 0.00 61 1016.2
20260502231610 55 19 7.0 10.0 0.00 0.00 0.00 63 1016.1
20260502230057 55 31 7.0 12.0 0.00 0.00 0.00 65 1016.2
20260502224600 55 40 7.0 12.0 0.00 0.00 0.00 64 1016.0
20260502223101 55 5 7.0 11.0 0.00 0.00 0.00 62 1016.2
20260502221600 55 5 8.0 11.0 0.00 0.00 0.00 59 1016.0
20260502220100 56 360 6.0 10.0 0.00 0.00 0.00 61 1016.0
20260502214556 55 330 7.0 14.0 0.00 0.00 0.00 62 1015.9
20260502213109 55 360 10.0 15.0 0.00 0.00 0.00 63 1016.0
20260502211555 55 19 2.0 11.0 0.00 0.00 0.00 66 1016.0
20260502210056 54 324 6.0 17.0 0.00 0.00 0.00 68 1016.3
20260502204616 55 309 12.0 26.0 0.00 0.00 0.00 63 1016.4
20260502203056 55 269 4.0 13.0 0.00 0.00 0.00 65 1016.2
20260502201558 55 307 9.0 15.0 0.00 0.00 0.00 62 1016.4
20260502200057 55 337 6.0 15.0 0.00 0.00 0.00 60 1016.4
20260502194556 56 314 10.0 17.0 0.00 0.00 0.00 60 1016.4
20260502193055 57 300 7.0 13.0 0.00 0.00 0.00 54 1016.2
20260502191556 58 248 9.0 13.0 0.00 0.00 0.00 57 1016.1